CRC

Crooked River Challenge - Loft Fly

Station: Inventory - T Race

Distance: 0.1 Miles    

Release: 29-Jun-2020 06:00

Weather Release:    Arrival:

Wind at Release:     Wind at Arrival:

Temp at Release: °    Temp at Arrival: °

Lofts: 191

Birds: 1013

Clocked: 1021

Good Luck to Everyone!
Drops Pos Breeder Pigeon Name Color Sex Ent Arrival Speed To Win Elg PdOpB
1 Dave Conover - PA 2349-IF20-PHX 9055 x 17825 BC H 1 09:35:22.95 0.817 00:00:00 Yes
2 Racing Pigeon Mall - WA 1045-AU20-RPM BLK C 2 09:35:34.05 0.816 00:00:16 Yes
2 Peters - GA 1949-AU20-NA Merry Christmas BB C 1 09:35:35.09 0.816 00:00:16 Yes
2 Western Loft - CA 0890-AU20-SFR BBSP H 1 09:35:40.39 0.816 00:00:16 Yes
2 S Procopoi Loft - GA 41850-AU20-ARPU Angela BC H 1 09:35:40.88 0.816 00:00:16 Yes
2 Great Wall - MS 20002-AU20-CHAN BCWF C 1 09:35:41.91 0.816 00:00:16 Missing
2 Chen & Liu Family - CT 56399-AU20-ARPU RD C 1 09:35:42.94 0.816 00:00:16 Yes
2 M & Y Connection - MI 0158-AU20-MY 1159 x 5193 BBSP H 1 09:35:42.96 0.816 00:00:16 Yes
2 Joe Atkinson - OR 14377-AU20-JEDD BVR Carl BGZ C 1 09:35:43.53 0.816 00:00:16 Yes
2 Genesis Syndicate Loft - AZ 0523-AU20-GEN BCSP C 2 09:35:44.56 0.816 00:00:16 Yes
2 Genesis Syndicate Loft - AZ 0522-AU20-GEN BBSP H 1 09:35:44.63 0.816 00:00:16 Yes
2 Dfm#1 - MO 9699-AU20-FOYS BCWF H 2 09:35:45.66 0.816 00:00:16 Yes
2 Liu Loft - NC 0102-AU20-KVLI BC C 1 09:35:45.69 0.816 00:00:16 Yes
2 All Glory To God - NM 2535-AU20-ARPU BB H 1 09:35:46.16 0.816 00:00:16 Yes
2 Poorhouse Road Loft - VA 22514-AU20-ARPU BC H 1 09:35:47.18 0.816 00:00:16 Yes
2 Kolvenbag & Son - PA 1415-IF20-KOLV BB C 1 09:35:47.20 0.816 00:00:16 Yes
2 Kolvenbag & Son - PA 1429-IF20-KOLV BC C 2 09:35:47.22 0.816 00:00:16 Yes
2 Little Greek R.I. - RI 0604-AU20-RI Gabe pick BB C 1 09:35:47.24 0.816 00:00:16 Yes
2 Racing Pigeon Mall - WA 1009-AU20-RPM BB C 1 09:35:47.27 0.816 00:00:16 Yes
2 Greek Connection - SC 0024-AU20-GRK Hoosier BBWF H 1 09:35:47.29 0.816 00:00:16 Yes
2 Sierra Ranch - CA 2037-AU20-SIER Kahawai BB H 1 09:35:47.57 0.816 00:00:16 Yes
2 Dfm#1 - MO 1441-IF20-BB BC C 1 09:35:48.12 0.816 00:00:16 Yes
2 Ramirez Loft - TX 0075-MX20-PALO BC H 1 09:35:48.92 0.816 00:00:16 Yes
24 Sun Loft - MA 8811-IF20-SUN BC H 1 09:35:49.47 0.815 00:00:32 Yes
24 Genesis Syndicate Loft - AZ 0566-AU20-GEN BCSP C 4 09:35:50.00 0.815 00:00:32 Yes
24 Christopher Loft - UT 20049-AU20-GS BB C 1 09:35:51.03 0.815 00:00:32 Yes
24 Horst Thiel - CA 4646-AU20-SRP BBSP H 3 09:35:51.05 0.815 00:00:32 Missing
24 R & D Racing 2 - ON 4402-AU20-AA BBSP C 1 09:35:51.07 0.815 00:00:32 Yes
24 Nanez Family Loft - WI 0004-AU20-NANZ BB C 1 09:35:51.09 0.815 00:00:32 Yes
24 AFL - GA 0049-IF20-AFL 99 NL x 509 GFL BB C 1 09:35:51.11 0.815 00:00:32 Yes
24 Silicon Valley Syndicate - CA 20017-AU20-SVS BBWF C 1 09:35:52.99 0.815 00:00:32 Yes
24 Horst Thiel - CA 4627-AU20-SRP BBSP H 1 09:35:53.01 0.815 00:00:32 Yes
24 Xiao Loft - WI 3108-AU20-RAC BB H 1 09:35:53.39 0.815 00:00:32 Yes
24 Genesis Syndicate Loft - AZ 0500-AU20-GEN DC H 3 09:35:54.41 0.815 00:00:32 Missing
24 Sam Haslem - UT 0111-AU20-SAM BC C 1 09:35:54.45 0.815 00:00:32 Yes
24 Wtj Loft - TX 0756-AU20-GSWC 411 BC H 1 09:35:54.62 0.815 00:00:32 Missing
24 Aztec Loft - DE 0144-AU20-AZTC BB H 1 09:35:54.79 0.815 00:00:32 Yes
24 Greek Connection - SC 0107-AU20-GRK Beast BB C 2 09:35:54.96 0.815 00:00:32 Yes
24 John Gutierrez - NM 0226-AU20-GUTZ Rudy/Gld BB C 1 09:35:55.50 0.815 00:00:32 Yes
24 Linda Loft - PA 0737-IF20-LU 369-5 BBSP H 1 09:35:56.53 0.815 00:00:32 Yes
24 Ez Syndicate - MN 5463-AU20-ARPU BB H 1 09:35:56.55 0.815 00:00:32 Yes
24 Mesopotamia Loft - MN 4827-AU20-JEDD BC C 2 09:35:56.57 0.815 00:00:32 Yes
24 Whell's Loft - CA 16309-AU20-AA CHLOE BBSP H 1 09:35:56.59 0.815 00:00:32 Yes
24 Wolf Den - IL 0112-AU20-WOLF BB H 1 09:35:56.62 0.815 00:00:32 Yes
24 Dj Loft Of Utah - UT 0005-AU20-HASH BBSP H 1 09:35:58.01 0.815 00:00:32 Missing
24 Flying Glory Loft - WA 28110-AU20-ARPU BC C 1 09:35:58.03 0.815 00:00:32 Yes
24 R & S Loft Of Tx - TX 0103-AU20-RS BB C 1 09:35:58.60 0.815 00:00:32 Yes
24 Horst Thiel - CA 4637-AU20-SRP BBPD C 2 09:35:59.63 0.815 00:00:32 Yes
24 Rueter Family Loft - OR 4503-AU20-CORP BBWF C 1 09:35:59.65 0.815 00:00:32 Yes
24 Lefkos Pyrgos - MA 0008-AU20-LEFK BBSP H 1 09:35:59.67 0.815 00:00:32 Yes
24 Adams Loft - PA 0099-IF20-FSJ BC C 1 09:35:59.68 0.815 00:00:32 Yes
24 Adam Hajduga - IL 0006-AU20-HAJD BB H 1 09:35:59.71 0.815 00:00:32 Yes
24 A H C Loft - FL 0457-IF20-BQC πŸ‰πŸ‰5474x243🍊🍊 BB H 1 09:36:00.12 0.815 00:00:32 Yes
24 Han Lu Loft - TX 0226-AU20-LUHA BB H 1 09:36:01.13 0.815 00:00:32 Yes
24 Family Loft - IN 0006-AU20-FAM BCWF C 1 09:36:01.16 0.815 00:00:32 Yes
24 Swampdog DLG - MS 0098-IF20-SDOG 150x151 BBSP C 1 09:36:02.18 0.815 00:00:32 Yes
24 Xiao Loft - WI 3118-AU20-RAC BB H 2 09:36:02.20 0.815 00:00:32 Yes
24 Lian Loft Vladimir 59 Perez - FL 2034-AU20-LIAN LulΓΊ BBT H 1 09:36:02.22 0.815 00:00:32 Yes
24 Lin Family Loft - GA 8979-AU20-LIN ζž— Warrior X WOLFGANG BC H 1 09:36:02.28 0.815 00:00:32 Missing
24 Walters Loft - NJ 56484-AU20-ARPU SLT H 1 09:36:02.30 0.815 00:00:32 Yes
24 Eastern Pearl Loft - VA 0719-AU20-EPL πŸˆšοΈι‡719 BB H 1 09:36:02.65 0.815 00:00:32 Yes
24 Tucson Triple Challenge - AZ 1194-AU20-JEDD BB H 1 09:36:03.67 0.815 00:00:32 Yes
24 Aztec Loft - DE 0147-AU20-AZTC BCSP C 2 09:36:03.68 0.815 00:00:32 Yes
24 Amer Loft - GA 0014-IF20-AFL 697 GFL x 849 GFL BBWF C 1 09:36:03.71 0.815 00:00:32 Yes
24 Andrew E. Skwiat - IN 0032-AU20-ANDY 74 x 6 BBWF H 1 09:36:04.97 0.815 00:00:32 Yes
24 Mesopotamia Loft - MN 1714-AU20-VITA BB H 1 09:36:04.99 0.815 00:00:32 Yes
67 Filipino-American Pigeon Fanciers Alliance - IL 0061-AU20-RGAB BBSP C 1 09:36:05.01 0.814 00:00:48 Yes
67 Emerson/Donnelly - SC 0333-AU20-MERL BBSP H 2 09:36:05.04 0.814 00:00:48 Yes
67 8ge - PA 1523-IF20-ERIE BC H 1 09:36:05.38 0.814 00:00:48 Yes
67 Arandas Loft - TX 12613-AU20-JEDD stef labrench x blue buc BB H 1 09:36:06.41 0.814 00:00:48 Yes
67 New York Winter Loft - NY 1363-AU20-ARPU 4119+139 BBWF C 1 09:36:06.43 0.814 00:00:48 Yes
67 Sterchi/Gragg - CA 2043-AU20-SIER BB H 1 09:36:06.45 0.814 00:00:48 Yes
67 Zhengloft - FL 0051-IF20-ZHEN BCWF H 1 09:36:07.26 0.814 00:00:48 Yes
67 Genesis Syndicate Loft - AZ 0201-AU20-GENS BBSP C 5 09:36:08.28 0.814 00:00:48 Yes
67 ***bird Love To Fly*** - MN 1356914-BE20-BELG Out of Germany πŸ‡©πŸ‡ͺ BBWF C 2 09:36:08.30 0.814 00:00:48 Yes
67 Andrew E. Skwiat - IN 0034-AU20-ANDY 179 x 880 BBWF H 2 09:36:08.32 0.814 00:00:48 Yes
67 Swampdog DLG - MS 0096-IF20-SDOG 211x245 BBSP H 2 09:36:08.34 0.814 00:00:48 Yes
67 Elton Dinga - TX 11002-AU20-AA Wouters 715 x Roziers 564 BB H 1 09:36:08.35 0.814 00:00:48 Yes
67 Nanez Family Loft - WI 0053-AU20-NANZ BB H 3 09:36:08.38 0.814 00:00:48 Yes
67 Great Wall - MS 14006-AU20-TONY BC C 2 09:36:09.23 0.814 00:00:48 Yes
67 Sam Haslem - UT 0113-AU20-SAM DCWF C 2 09:36:09.96 0.814 00:00:48 Yes
67 Dfm#1 - MO 1435-IF20-BB BBWF H 3 09:36:10.14 0.814 00:00:48 Yes
67 Emerson/Donnelly - SC 0326-AU20-MERL BB C 1 09:36:10.24 0.814 00:00:48 Yes
67 Victoria Falls World Challenge/Tbw - ZW 20077-AU20-TBW BB C 1 09:36:10.99 0.814 00:00:48 Yes
67 Flyhome Loft - KY 2009-AU20-FLYH BCWF C 1 09:36:12.02 0.814 00:00:48 Yes
67 Irishsyndicatelofts - AZ 1043-AU20-IRIS w 7778 BBWF C 1 09:36:12.14 0.814 00:00:48 Yes
67 Ramirez Loft - TX 150619-MX20-FMC BB H 3 09:36:12.31 0.814 00:00:48 Yes
67 John V. Partridge - CA 2117-AU20-PASO Bond-Cracker BB H 1 09:36:12.97 0.814 00:00:48 Yes
67 Steven Loft - TX 0199-AU20-CCL BBWF C 1 09:36:13.99 0.814 00:00:48 Yes
67 Tian Loft - FL 30141-AU20-ARPU BC H 1 09:36:14.02 0.814 00:00:48 Yes
67 R M C Loft - CA 300137-AU20-RMC BB H 1 09:36:14.08 0.814 00:00:48 Yes
67 Ramirez Loft - TX 0078-MX20-PALO BB H 2 09:36:15.11 0.814 00:00:48 Yes
67 B.B.& W. - CA 20005-AU20-ARPU 02-03 /1 BCT H 1 09:36:15.13 0.814 00:00:48 Yes
67 Eastern Pearl Loft - VA 0718-AU20-EPL πŸˆšοΈι‡718 BB C 2 09:36:15.15 0.814 00:00:48 Yes
67 Dekeratry Loft - TX 2526-AU20-HOT GZ H 1 09:36:15.17 0.814 00:00:48 Yes
67 Baldwin & Tillson - NC 0007-AU20-TENT KW-VICTORIA BB C 1 09:36:15.66 0.814 00:00:48 Yes
67 PNWC - ID 1207-AU20-IDA β€œPAIR # J13” BC H 1 09:36:16.69 0.814 00:00:48 Yes
67 ***bird Love To Fly*** - MN 0104-AU20-Y2K 31895x90904 Hero BB H 1 09:36:16.72 0.814 00:00:48 Yes
67 Nanez Family Loft - WI 0033-AU20-NANZ BB C 2 09:36:17.32 0.814 00:00:48 Yes
67 Send An Ace Loft/Bobby Pagdilao - WA 0825-AU20-GSC BC H 1 09:36:18.37 0.814 00:00:48 Yes

There are 967 bird records

Note: These Race Results are unofficial and subject to change until verified by the Race Committee and declared final.